• In Germany
  • List of Countries
  • For 7 days
  • Water Temperature
  • Satellite Maps
  • Weather Map
  • Weather Widgets
  • user-avatar
    Login

    Hourly Weather Campo Grande

    Today, 20 September, Thursday

    Time Temperature Precipitation Wind Pressure Humidity
    00:00 +25°C° 0.4 mm 3 mps 709 mmHg 76%
    01:00 +25°C° 0.4 mm 3 mps 709 mmHg 78%
    02:00 +24°C° 0 mm 3 mps 709 mmHg 80%
    03:00 +24°C° 0.7 mm 2 mps 709 mmHg 82%
    04:00 +23°C° 0.7 mm 2 mps 709 mmHg 84%
    05:00 +23°C° 0.7 mm 2 mps 709 mmHg 87%
    06:00 +24°C° 0.9 mm 2 mps 710 mmHg 82%
    07:00 +26°C° 0.9 mm 2 mps 711 mmHg 78%
    08:00 +28°C° 0 mm 3 mps 711 mmHg 69%
    09:00 +29°C° 1.2 mm 3 mps 711 mmHg 64%
    10:00 +30°C° 1.2 mm 3 mps 711 mmHg 59%
    11:00 +32°C° 1.2 mm 4 mps 711 mmHg 55%
    12:00 +31°C° 0 mm 3 mps 711 mmHg 52%
    13:00 +33°C° 0 mm 3 mps 711 mmHg 50%
    14:00 +33°C° 0 mm 3 mps 710 mmHg 48%
    15:00 +32°C° 0 mm 2 mps 710 mmHg 52%
    16:00 +31°C° 0 mm 1 mps 709 mmHg 56%
    17:00 +30°C° 0 mm 1 mps 709 mmHg 59%
    18:00 +29°C° 0.2 mm 1 mps 709 mmHg 62%
    19:00 +28°C° 0.2 mm 1 mps 709 mmHg 64%
    20:00 +27°C° 0.2 mm 1 mps 709 mmHg 66%
    21:00 +26°C° 0 mm 2 mps 709 mmHg 69%
    22:00 +26°C° 0 mm 2 mps 709 mmHg 71%
    23:00 +25°C° 0 mm 2 mps 709 mmHg 73%

    Tomorrow, 21 September, Friday

    Time Temperature Precipitation Wind Pressure Humidity
    00:00 +25°C° 0 mm 3 mps 709 mmHg 73%
    01:00 +25°C° 0 mm 3 mps 709 mmHg 73%
    02:00 +25°C° 0 mm 3 mps 709 mmHg 73%
    03:00 +24°C° 0.3 mm 3 mps 709 mmHg 75%
    04:00 +24°C° 0.3 mm 2 mps 709 mmHg 76%
    05:00 +23°C° 0.3 mm 2 mps 709 mmHg 78%
    06:00 +25°C° 0.3 mm 2 mps 710 mmHg 74%
    07:00 +26°C° 0.3 mm 3 mps 710 mmHg 71%
    08:00 +27°C° 0.3 mm 3 mps 711 mmHg 67%
    09:00 +29°C° 0 mm 2 mps 711 mmHg 60%
    10:00 +31°C° 0 mm 2 mps 711 mmHg 53%
    11:00 +34°C° 0 mm 2 mps 711 mmHg 46%
    12:00 +35°C° 0 mm 2 mps 711 mmHg 43%
    13:00 +35°C° 0 mm 1 mps 710 mmHg 40%
    14:00 +35°C° 0 mm 1 mps 709 mmHg 37%
    15:00 +34°C° 0 mm 1 mps 709 mmHg 40%
    16:00 +33°C° 0 mm 1 mps 709 mmHg 44%
    17:00 +32°C° 0 mm 1 mps 709 mmHg 48%
    18:00 +31°C° 0 mm 1 mps 709 mmHg 51%
    19:00 +30°C° 0 mm 2 mps 709 mmHg 54%
    20:00 +28°C° 0 mm 2 mps 710 mmHg 57%
    21:00 +28°C° 0.1 mm 2 mps 710 mmHg 60%
    22:00 +27°C° 0.1 mm 2 mps 710 mmHg 62%
    23:00 +27°C° 0.1 mm 2 mps 710 mmHg 65%

    Day after tomorrow, 22 September, Saturday

    Time Temperature Precipitation Wind Pressure Humidity
    00:00 +26°C° 0 mm 2 mps 709 mmHg 66%
    01:00 +26°C° 0 mm 2 mps 709 mmHg 67%
    02:00 +25°C° 0 mm 2 mps 708 mmHg 69%
    03:00 +25°C° 0 mm 2 mps 709 mmHg 69%
    04:00 +25°C° 0 mm 2 mps 709 mmHg 70%
    05:00 +25°C° 0 mm 3 mps 709 mmHg 71%
    06:00 +26°C° 0 mm 3 mps 709 mmHg 65%
    07:00 +28°C° 0 mm 3 mps 710 mmHg 60%
    08:00 +30°C° 0 mm 4 mps 711 mmHg 54%
    09:00 +33°C° 0 mm 4 mps 711 mmHg 49%
    10:00 +35°C° 0 mm 3 mps 711 mmHg 43%
    11:00 +36°C° 0 mm 3 mps 711 mmHg 37%
    12:00 +37°C° 0 mm 3 mps 710 mmHg 35%
    13:00 +37°C° 0 mm 2 mps 709 mmHg 33%
    14:00 +38°C° 0 mm 2 mps 708 mmHg 31%
    15:00 +36°C° 0 mm 2 mps 708 mmHg 35%
    16:00 +35°C° 0 mm 2 mps 708 mmHg 38%
    17:00 +33°C° 0 mm 1 mps 707 mmHg 42%
    18:00 +32°C° 0 mm 2 mps 708 mmHg 44%
    19:00 +31°C° 0 mm 2 mps 708 mmHg 46%
    20:00 +29°C° 0 mm 2 mps 708 mmHg 48%
    21:00 +29°C° 0 mm 2 mps 708 mmHg 49%
    22:00 +28°C° 0 mm 3 mps 708 mmHg 50%
    23:00 +28°C° 0 mm 3 mps 708 mmHg 52%

    23 September, Sunday

    Time Temperature Precipitation Wind Pressure Humidity
    00:00 +28°C° 0 mm 3 mps 708 mmHg 53%
    01:00 +27°C° 0 mm 3 mps 707 mmHg 54%
    02:00 +27°C° 0 mm 3 mps 707 mmHg 54%
    03:00 +26°C° 0 mm 2 mps 707 mmHg 55%
    04:00 +26°C° 0 mm 2 mps 708 mmHg 56%
    05:00 +26°C° 0 mm 2 mps 708 mmHg 57%
    06:00 +27°C° 0 mm 3 mps 709 mmHg 54%
    07:00 +29°C° 0 mm 3 mps 710 mmHg 50%
    08:00 +31°C° 0 mm 3 mps 710 mmHg 47%
    09:00 +34°C° 0 mm 3 mps 710 mmHg 42%
    10:00 +35°C° 0 mm 4 mps 710 mmHg 37%
    11:00 +37°C° 0 mm 4 mps 710 mmHg 33%
    12:00 +37°C° 0 mm 3 mps 709 mmHg 32%
    13:00 +38°C° 0 mm 3 mps 708 mmHg 31%
    14:00 +38°C° 0 mm 2 mps 708 mmHg 31%
    15:00 +37°C° 0 mm 2 mps 708 mmHg 33%
    16:00 +36°C° 0 mm 2 mps 707 mmHg 36%
    17:00 +35°C° 0 mm 2 mps 707 mmHg 39%
    18:00 +32°C° 0 mm 2 mps 708 mmHg 40%
    19:00 +31°C° 0 mm 2 mps 708 mmHg 42%
    20:00 +30°C° 0 mm 3 mps 709 mmHg 43%
    21:00 +30°C° 0 mm 3 mps 709 mmHg 43%
    22:00 +30°C° 0 mm 3 mps 709 mmHg 44%
    23:00 +29°C° 0 mm 3 mps 709 mmHg 45%

    24 September, Monday

    Time Temperature Precipitation Wind Pressure Humidity
    00:00 +29°C° 0 mm 3 mps 709 mmHg 46%
    01:00 +28°C° 0 mm 3 mps 708 mmHg 47%
    02:00 +28°C° 0 mm 3 mps 708 mmHg 48%
    03:00 +27°C° 0 mm 3 mps 708 mmHg 49%
    04:00 +27°C° 0 mm 2 mps 708 mmHg 50%
    05:00 +26°C° 0 mm 2 mps 708 mmHg 51%
    06:00 +28°C° 0 mm 3 mps 709 mmHg 47%
    07:00 +30°C° 0 mm 4 mps 709 mmHg 44%
    08:00 +33°C° 0 mm 4 mps 710 mmHg 40%
    09:00 +35°C° 0 mm 4 mps 710 mmHg 36%
    10:00 +37°C° 0 mm 4 mps 710 mmHg 32%
    11:00 +40°C° 0 mm 4 mps 710 mmHg 27%
    12:00 +38°C° 0 mm 3 mps 710 mmHg 28%
    13:00 +38°C° 0 mm 2 mps 709 mmHg 29%
    14:00 +37°C° 0 mm 2 mps 708 mmHg 30%
    15:00 +37°C° 0 mm 2 mps 708 mmHg 32%
    16:00 +35°C° 0 mm 1 mps 708 mmHg 35%
    17:00 +34°C° 0 mm 1 mps 708 mmHg 37%
    18:00 +33°C° 0 mm 1 mps 708 mmHg 39%
    19:00 +31°C° 0 mm 1 mps 708 mmHg 41%
    20:00 +30°C° 0 mm 2 mps 708 mmHg 42%
    21:00 +29°C° 0 mm 2 mps 708 mmHg 44%
    22:00 +29°C° 0 mm 2 mps 708 mmHg 46%
    23:00 +28°C° 0 mm 2 mps 708 mmHg 47%

    25 September, Tuesday

    Time Temperature Precipitation Wind Pressure Humidity
    00:00 +28°C° 0 mm 2 mps 708 mmHg 47%
    01:00 +28°C° 0 mm 2 mps 708 mmHg 47%
    02:00 +28°C° 0 mm 2 mps 707 mmHg 47%
    03:00 +28°C° 0 mm 2 mps 708 mmHg 48%
    04:00 +27°C° 0 mm 2 mps 708 mmHg 49%
    05:00 +27°C° 0 mm 2 mps 708 mmHg 50%
    06:00 +29°C° 0 mm 3 mps 708 mmHg 47%
    07:00 +30°C° 0 mm 3 mps 709 mmHg 45%
    08:00 +33°C° 0 mm 4 mps 710 mmHg 42%
    09:00 +34°C° 0 mm 4 mps 710 mmHg 38%
    10:00 +36°C° 0 mm 4 mps 710 mmHg 35%
    11:00 +37°C° 0 mm 5 mps 709 mmHg 31%
    12:00 +37°C° 0 mm 4 mps 709 mmHg 32%
    13:00 +37°C° 0 mm 3 mps 708 mmHg 32%
    14:00 +37°C° 0 mm 3 mps 707 mmHg 32%
    15:00 +36°C° 0 mm 2 mps 707 mmHg 34%
    16:00 +34°C° 0 mm 1 mps 707 mmHg 36%
    17:00 +34°C° 0 mm 1 mps 707 mmHg 38%
    18:00 +32°C° 0.4 mm 1 mps 707 mmHg 42%
    19:00 +31°C° 0.4 mm 1 mps 707 mmHg 45%
    20:00 +29°C° 0.4 mm 2 mps 707 mmHg 49%
    21:00 +29°C° 0 mm 2 mps 707 mmHg 49%
    22:00 +29°C° 0 mm 2 mps 707 mmHg 50%
    23:00 +28°C° 0 mm 2 mps 707 mmHg 50%
    Show more